Henderson, NV

1:54 PM PDT on March 28, 2017 (GMT -0700)
Henderson

Weather History for KHND - May, 2014

Change the Weather History Date:

Wednesday, May 7, 2014

  Actual Average (KLAS) Record (KLAS)
Temperature  
Mean Temperature 62 °F -  
Max Temperature 72 °F 83 °F 102 °F (1989)
Min Temperature 52 °F 58 °F 41 °F (1938)
Degree Days  
Heating Degree Days 3    
Growing Degree Days 12 (Base 50)    
Moisture  
Dew Point 30 °F    
Average Humidity 31    
Maximum Humidity 57    
Minimum Humidity 16    
Precipitation  
Precipitation 0.00 in - - ()
Sea Level Pressure  
Sea Level Pressure 29.76 in    
Wind  
Wind Speed 7 mph (SW)    
Max Wind Speed 13 mph    
Max Gust Speed 16 mph    
Visibility 10 miles    
Events      
Averages and records for this station are not official NWS values.
T = Trace of Precipitation, MM = Missing Value Source: NWS Daily Summary

Daily Weather History Graph

Daily Weather History Graph

Search for Another Location

Airport or City:

Trip Planner

Search our weather history database for the weather conditions in past years. The results will help you decide how hot, cold, wet, or windy it might be!

Date:

Astronomy

May. 07, 2014 Rise Set
Actual Time 5:41 AM PDT 7:32 PM PDT
Civil Twilight 5:13 AM PDT 8:00 PM PDT
Nautical Twilight 4:40 AM PDT 8:34 PM PDT
Astronomical Twilight 4:04 AM PDT 9:10 PM PDT
Moon 12:54 PM PDT (5/7) 1:29 AM PDT (5/7)
Length of Visible Light 14h 46m
Length of Day
13h 51m
First Quarter, 56% of the Moon is Illuminated
May 7
First Quarter
May 14
Full
May 21
Last Quarter
May 28
New
Jun 5
First Quarter

Hourly Weather History & Observations

Time (PDT) Temp. Dew Point Humidity Pressure Visibility Wind Dir Wind Speed Gust Speed Precip Events Conditions
12:56 AM 52.9 °F 36.0 °F 53% 29.70 in 10.0 mi South 6.9 mph - N/A   Partly Cloudy
1:56 AM 52.9 °F 36.9 °F 55% 29.69 in 10.0 mi South 10.4 mph - N/A   Mostly Cloudy
2:56 AM 52.9 °F 37.9 °F 57% 29.70 in 10.0 mi SSW 9.2 mph - N/A   Scattered Clouds
3:56 AM 54.0 °F 36.9 °F 52% 29.71 in 10.0 mi Calm Calm - N/A   Mostly Cloudy
4:56 AM 54.0 °F 36.0 °F 51% 29.70 in 10.0 mi SSW 9.2 mph - N/A   Scattered Clouds
5:56 AM 54.0 °F 36.0 °F 51% 29.72 in 10.0 mi South 5.8 mph - N/A   Overcast
6:56 AM 55.9 °F 36.9 °F 49% 29.73 in 10.0 mi SSW 12.7 mph - N/A   Clear
7:56 AM 59.0 °F 36.0 °F 42% 29.75 in 10.0 mi South 9.2 mph - N/A   Clear
8:56 AM 63.0 °F 32.0 °F 31% 29.76 in 10.0 mi SSW 6.9 mph - N/A   Clear
9:56 AM 64.9 °F 29.1 °F 26% 29.77 in 10.0 mi WSW 5.8 mph - N/A   Clear
10:56 AM 65.8 °F 29.1 °F 25% 29.78 in 10.0 mi Variable 3.5 mph - N/A   Clear
11:56 AM 66.9 °F 28.0 °F 23% 29.78 in 10.0 mi North 8.1 mph - N/A   Mostly Cloudy
12:56 PM 70.0 °F 28.0 °F 21% 29.78 in 10.0 mi ENE 6.9 mph - N/A   Scattered Clouds
1:56 PM 68.9 °F 26.1 °F 20% 29.78 in 10.0 mi WNW 10.4 mph 16.1 mph N/A   Scattered Clouds
2:56 PM 70.9 °F 26.1 °F 19% 29.77 in 10.0 mi WNW 8.1 mph - N/A   Partly Cloudy
3:56 PM 70.9 °F 26.1 °F 19% 29.77 in 10.0 mi Variable 6.9 mph - N/A   Partly Cloudy
4:56 PM 70.9 °F 25.2 °F 18% 29.77 in 10.0 mi North 5.8 mph - N/A   Partly Cloudy
5:56 PM 72.0 °F 25.2 °F 17% 29.76 in 10.0 mi NW 6.9 mph - N/A   Mostly Cloudy
6:56 PM 72.0 °F 23.0 °F 16% 29.76 in 10.0 mi WSW 9.2 mph - N/A   Clear
7:56 PM 68.9 °F 24.1 °F 18% 29.77 in 10.0 mi Calm Calm - N/A   Clear
8:56 PM 65.8 °F 25.2 °F 21% 29.79 in 10.0 mi Calm Calm - N/A   Clear
9:56 PM 63.0 °F 24.1 °F 23% 29.81 in 10.0 mi SSE 5.8 mph - N/A   Mostly Cloudy
10:56 PM 61.9 °F 23.0 °F 23% 29.82 in 10.0 mi South 9.2 mph - N/A   Partly Cloudy
11:56 PM 63.9 °F 27.1 °F 25% 29.83 in 10.0 mi South 10.4 mph - N/A   Scattered Clouds